FW8347 Weather Reports


time (UTC)temp
C
wind
direction
speed
KPH
gust
KPH
rain 1hr
cm
rain 24hr
cm
rain mn
cm
humidity
%
barometer
mb
20260505060049 18 207 17.7 29.0 0.00 0.00 0.00 63 1001.8
20260505054557 18 207 16.1 30.6 0.00 0.00 0.00 62 1001.9
20260505053102 18 194 16.1 27.4 0.00 0.00 0.00 60 1001.9
20260505051541 18 211 16.1 29.0 0.00 0.00 0.00 59 1002.0
20260505041600 18 213 12.9 27.4 0.00 0.00 0.00 57 1002.5
20260505040046 18 227 17.7 30.6 0.00 0.00 0.00 56 1002.7
20260505034547 17 201 17.7 40.2 0.00 0.00 0.00 52 1002.3
20260505033046 17 196 9.7 17.7 0.00 0.00 0.00 52 1002.2
20260505031549 15 204 8.0 14.5 0.00 0.00 0.00 59 1002.4
20260505030046 13 187 6.4 11.3 0.00 0.00 0.00 65 1002.5
20260505024548 13 149 4.8 8.0 0.00 0.00 0.00 69 1002.3
20260505023048 12 149 6.4 9.7 0.00 0.00 0.00 70 1002.6
20260505021547 12 149 4.8 9.7 0.00 0.00 0.00 71 1002.8
20260505020043 12 149 4.8 9.7 0.00 0.00 0.00 70 1003.0
20260505014545 13 149 4.8 8.0 0.00 0.00 0.00 69 1003.0
20260505013041 12 149 3.2 8.0 0.00 0.00 0.00 68 1002.8
20260505011546 12 149 3.2 8.0 0.00 0.00 0.00 71 1002.7
20260505010047 13 149 4.8 8.0 0.00 0.00 0.00 69 1002.7
20260505004545 13 149 4.8 9.7 0.00 0.00 0.00 65 1002.6
20260505003042 13 149 3.2 8.0 0.00 0.00 0.00 61 1002.7
20260505001549 15 65 3.2 6.4 0.00 0.00 0.00 60 1002.6
20260505000054 15 65 3.2 6.4 0.00 0.00 0.00 53 1002.5
20260504234552 16 65 3.2 6.4 0.00 0.00 0.00 54 1002.5
20260504233045 17 65 1.6 8.0 0.00 0.00 0.00 51 1002.5
20260504231555 20 43 3.2 11.3 0.00 0.00 0.00 43 1002.4
20260504230041 22 227 6.4 17.7 0.00 0.00 0.00 37 1002.4
20260504224540 23 234 9.7 20.9 0.00 0.00 0.00 35 1002.2
20260504223046 23 242 14.5 25.7 0.00 0.00 0.00 36 1002.2
20260504221551 23 232 12.9 27.4 0.00 0.00 0.00 36 1002.3
20260504220045 23 241 17.7 25.7 0.00 0.00 0.00 36 1002.5
20260504214548 23 237 19.3 33.8 0.00 0.00 0.00 38 1002.6
20260504213047 22 255 12.9 30.6 0.00 0.00 0.00 38 1002.7
20260504211550 23 215 14.5 30.6 0.00 0.00 0.00 38 1002.5
20260504210105 23 212 16.1 29.0 0.00 0.00 0.00 39 1002.8
20260504204553 22 253 16.1 30.6 0.00 0.00 0.00 39 1002.8
20260504203047 22 264 16.1 29.0 0.00 0.00 0.00 38 1002.9
20260504201550 21 213 16.1 30.6 0.00 0.00 0.00 44 1003.2
20260504200046 22 234 16.1 30.6 0.00 0.00 0.00 41 1003.3
20260504194602 22 237 19.3 33.8 0.00 0.00 0.00 42 1003.7
20260504193046 22 226 14.5 30.6 0.00 0.00 0.00 44 1003.9
20260504191549 21 236 11.3 29.0 0.00 0.00 0.00 46 1004.0
20260504190055 20 266 20.9 38.6 0.00 0.00 0.00 48 1004.0
20260504184555 21 261 25.7 40.2 0.00 0.00 0.00 48 1004.3
20260504183044 20 271 22.5 43.5 0.00 0.00 0.00 51 1004.4
20260504181550 20 280 17.7 37.0 0.00 0.00 0.00 49 1004.4
20260504180114 20 241 24.1 40.2 0.00 0.00 0.00 48 1004.6
20260504174549 20 273 19.3 29.0 0.00 0.00 0.00 48 1004.8
20260504173057 20 238 16.1 40.2 0.00 0.00 0.00 50 1004.9
20260504171547 20 251 19.3 29.0 0.00 0.00 0.00 49 1004.9
20260504150108 16 198 11.3 32.2 0.00 0.00 0.00 57 1005.9
20260504120110 12 230 17.7 32.2 0.00 0.00 0.00 59 1006.7
20260504081546 11 249 12.9 29.0 0.00 0.00 0.00 59 1006.7